contact:dominique.lefevre@mio.osupytheas.fr, maurice.libes@osupytheas.fr, didier.mallarino@osupytheas.fr
Project:EMSO http://www.emso-fr.org/EMSO-France
Depth: 2436.0 m
Title:EMSO Ligure Ouest : Data MII capteur MICROCAT
DateTime_Computer,Latitude,Longitude,Temperature,Conductivity,Pressure,DateTime_Instrument
DateTime_Computer,Latitude,Longitude,degC,S m-1,dbar,DateTime_Instrument
2020-06-07T00:01:37Z,42.805,6.029,13.2973,4.59978,2470.133,2020-6-07T02:02:21Z
2020-06-07T00:04:40Z,42.805,6.029,13.2976,4.59977,2470.11,2020-6-07T02:05:24Z
2020-06-07T00:07:43Z,42.805,6.029,13.2972,4.59976,2470.124,2020-6-07T02:08:27Z
2020-06-07T00:10:46Z,42.805,6.029,13.2973,4.59975,2470.124,2020-6-07T02:11:30Z
2020-06-07T00:13:50Z,42.805,6.029,13.2972,4.59981,2470.04,2020-6-07T02:14:33Z
2020-06-07T00:16:53Z,42.805,6.029,13.2975,4.59977,2470.133,2020-6-07T02:17:37Z
2020-06-07T00:19:56Z,42.805,6.029,13.2974,4.59980,2470.077,2020-6-07T02:20:40Z
2020-06-07T00:22:59Z,42.805,6.029,13.2975,4.59978,2470.087,2020-6-07T02:23:43Z
2020-06-07T00:26:03Z,42.805,6.029,13.2973,4.59979,2470.087,2020-6-07T02:26:46Z
2020-06-07T00:29:06Z,42.805,6.029,13.2974,4.59976,2470.1,2020-6-07T02:29:50Z
2020-06-07T00:32:09Z,42.805,6.029,13.2971,4.59978,2470.053,2020-6-07T02:32:53Z
2020-06-07T00:35:12Z,42.805,6.029,13.2973,4.59978,2470.1,2020-6-07T02:35:56Z
2020-06-07T00:38:16Z,42.805,6.029,13.2971,4.59978,2470.087,2020-6-07T02:38:59Z
2020-06-07T00:41:19Z,42.805,6.029,13.2971,4.59976,2470.1,2020-6-07T02:42:02Z
2020-06-07T00:44:22Z,42.805,6.029,13.2970,4.59976,2470.1,2020-6-07T02:45:06Z
2020-06-07T00:47:25Z,42.805,6.029,13.2975,4.59978,2470.063,2020-6-07T02:48:09Z
2020-06-07T00:50:29Z,42.805,6.029,13.2970,4.59978,2470.087,2020-6-07T02:51:12Z
2020-06-07T00:53:32Z,42.805,6.029,13.2971,4.59976,2470.087,2020-6-07T02:54:15Z
2020-06-07T00:56:35Z,42.805,6.029,13.2969,4.59976,2470.053,2020-6-07T02:57:19Z
2020-06-07T00:59:38Z,42.805,6.029,13.2976,4.59983,2470.063,2020-6-07T03:00:22Z
2020-06-07T01:02:42Z,42.805,6.029,13.2974,4.59980,2470.077,2020-6-07T03:03:25Z
2020-06-07T01:05:45Z,42.805,6.029,13.2974,4.59979,2470.03,2020-6-07T03:06:29Z
2020-06-07T01:08:48Z,42.805,6.029,13.2974,4.59978,2470.04,2020-6-07T03:09:32Z
2020-06-07T01:11:51Z,42.805,6.029,13.2972,4.59979,2470.053,2020-6-07T03:12:35Z
2020-06-07T01:14:55Z,42.805,6.029,13.2976,4.59980,2470.04,2020-6-07T03:15:38Z
2020-06-07T01:17:58Z,42.805,6.029,13.2978,4.59978,2470.063,2020-6-07T03:18:42Z
2020-06-07T01:21:01Z,42.805,6.029,13.2976,4.59978,2470.017,2020-6-07T03:21:45Z
2020-06-07T01:24:04Z,42.805,6.029,13.2974,4.59978,2470.063,2020-6-07T03:24:48Z
2020-06-07T01:27:08Z,42.805,6.029,13.2974,4.59978,2470.04,2020-6-07T03:27:51Z
2020-06-07T01:30:11Z,42.805,6.029,13.2972,4.59976,2470.077,2020-6-07T03:30:54Z
2020-06-07T01:33:14Z,42.805,6.029,13.2977,4.59976,2470.04,2020-6-07T03:33:58Z
2020-06-07T01:36:17Z,42.805,6.029,13.2973,4.59978,2470.026,2020-6-07T03:37:01Z
2020-06-07T01:39:21Z,42.805,6.029,13.2976,4.59976,2470.04,2020-6-07T03:40:04Z
2020-06-07T01:42:24Z,42.805,6.029,13.2971,4.59978,2470.04,2020-6-07T03:43:08Z
2020-06-07T01:45:27Z,42.805,6.029,13.2973,4.59976,2470.04,2020-6-07T03:46:11Z
2020-06-07T01:48:30Z,42.805,6.029,13.2971,4.59978,2470.04,2020-6-07T03:49:14Z
2020-06-07T01:51:33Z,42.805,6.029,13.2973,4.59978,2470.053,2020-6-07T03:52:17Z
2020-06-07T01:54:37Z,42.805,6.029,13.2974,4.59978,2470.04,2020-6-07T03:55:20Z
2020-06-07T01:57:40Z,42.805,6.029,13.2973,4.59976,2470.04,2020-6-07T03:58:24Z
2020-06-07T02:00:43Z,42.805,6.029,13.2974,4.59976,2470.03,2020-6-07T04:01:27Z
2020-06-07T02:03:46Z,42.805,6.029,13.2973,4.59976,2470.053,2020-6-07T04:04:30Z
2020-06-07T02:06:50Z,42.805,6.029,13.2974,4.59976,2470.017,2020-6-07T04:07:33Z
2020-06-07T02:09:53Z,42.805,6.029,13.2972,4.59981,2470.063,2020-6-07T04:10:37Z
2020-06-07T02:12:56Z,42.805,6.029,13.2972,4.59976,2470.04,2020-6-07T04:13:40Z
2020-06-07T02:15:59Z,42.805,6.029,13.2974,4.59976,2470.053,2020-6-07T04:16:43Z
2020-06-07T02:19:03Z,42.805,6.029,13.2974,4.59976,2470.053,2020-6-07T04:19:46Z
2020-06-07T02:22:06Z,42.805,6.029,13.2971,4.59978,2470.017,2020-6-07T04:22:50Z
2020-06-07T02:25:09Z,42.805,6.029,13.2971,4.59977,2470.017,2020-6-07T04:25:53Z
2020-06-07T02:28:12Z,42.805,6.029,13.2971,4.59976,2470.04,2020-6-07T04:28:56Z
2020-06-07T02:31:16Z,42.805,6.029,13.2969,4.59977,2470.017,2020-6-07T04:31:59Z
2020-06-07T02:34:19Z,42.805,6.029,13.2974,4.59976,2470.017,2020-6-07T04:35:03Z
2020-06-07T02:37:22Z,42.805,6.029,13.2974,4.59976,2470.03,2020-6-07T04:38:06Z
2020-06-07T02:40:25Z,42.805,6.029,13.2976,4.59977,2470.017,2020-6-07T04:41:09Z
2020-06-07T02:43:28Z,42.805,6.029,13.2973,4.59975,2470.04,2020-6-07T04:44:12Z
2020-06-07T02:46:32Z,42.805,6.029,13.2973,4.59978,2470.017,2020-6-07T04:47:15Z
2020-06-07T02:49:35Z,42.805,6.029,13.2975,4.59976,2470.077,2020-6-07T04:50:19Z
2020-06-07T02:52:38Z,42.805,6.029,13.2974,4.59976,2470.017,2020-6-07T04:53:22Z
2020-06-07T02:55:41Z,42.805,6.029,13.2970,4.59979,2470.053,2020-6-07T04:56:25Z
2020-06-07T02:58:45Z,42.805,6.029,13.2975,4.59978,2470.03,2020-6-07T04:59:28Z
2020-06-07T03:01:48Z,42.805,6.029,13.2974,4.59975,2470.053,2020-6-07T05:02:32Z
2020-06-07T03:04:51Z,42.805,6.029,13.2973,4.59976,2470.017,2020-6-07T05:05:35Z
2020-06-07T03:07:55Z,42.805,6.029,13.2969,4.59974,2469.97,2020-6-07T05:08:39Z
2020-06-07T03:10:58Z,42.805,6.029,13.2971,4.59975,2470.053,2020-6-07T05:11:42Z
2020-06-07T03:14:01Z,42.805,6.029,13.2974,4.59975,2470.04,2020-6-07T05:14:45Z
2020-06-07T03:17:05Z,42.805,6.029,13.2974,4.59975,2470.04,2020-6-07T05:17:48Z
2020-06-07T03:20:08Z,42.805,6.029,13.2973,4.59978,2470.053,2020-6-07T05:20:52Z
2020-06-07T03:23:11Z,42.805,6.029,13.2974,4.59977,2470.017,2020-6-07T05:23:55Z
2020-06-07T03:26:14Z,42.805,6.029,13.2972,4.59978,2469.993,2020-6-07T05:26:58Z
2020-06-07T03:29:17Z,42.805,6.029,13.2971,4.59975,2470.017,2020-6-07T05:30:01Z
2020-06-07T03:32:21Z,42.805,6.029,13.2971,4.59977,2470.026,2020-6-07T05:33:04Z
2020-06-07T03:35:24Z,42.805,6.029,13.2974,4.59979,2470.077,2020-6-07T05:36:08Z
2020-06-07T03:38:27Z,42.805,6.029,13.2974,4.59979,2470.077,2020-6-07T05:39:11Z
2020-06-07T03:41:30Z,42.805,6.029,13.2972,4.59980,2470.063,2020-6-07T05:42:14Z
2020-06-07T03:44:34Z,42.805,6.029,13.2972,4.59979,2470.017,2020-6-07T05:45:17Z
2020-06-07T03:47:37Z,42.805,6.029,13.2972,4.59975,2470.04,2020-6-07T05:48:21Z
2020-06-07T03:50:40Z,42.805,6.029,13.2972,4.59976,2470.03,2020-6-07T05:51:24Z
2020-06-07T03:53:43Z,42.805,6.029,13.2974,4.59975,2470.017,2020-6-07T05:54:27Z
2020-06-07T03:56:47Z,42.805,6.029,13.2974,4.59978,2470.04,2020-6-07T05:57:31Z
2020-06-07T03:59:50Z,42.805,6.029,13.2974,4.59975,2470.063,2020-6-07T06:00:34Z
2020-06-07T04:02:53Z,42.805,6.029,13.2972,4.59976,2470.04,2020-6-07T06:03:37Z
2020-06-07T04:05:57Z,42.805,6.029,13.2975,4.59977,2470.077,2020-6-07T06:06:40Z
2020-06-07T04:09:00Z,42.805,6.029,13.2976,4.59976,2470.063,2020-6-07T06:09:44Z
2020-06-07T04:12:03Z,42.805,6.029,13.2973,4.59978,2470.063,2020-6-07T06:12:47Z
2020-06-07T04:15:06Z,42.805,6.029,13.2971,4.59978,2470.077,2020-6-07T06:15:50Z
2020-06-07T04:18:09Z,42.805,6.029,13.2976,4.59976,2470.077,2020-6-07T06:18:53Z
2020-06-07T04:21:13Z,42.805,6.029,13.2971,4.59975,2470.063,2020-6-07T06:21:56Z
2020-06-07T04:24:16Z,42.805,6.029,13.2973,4.59974,2470.063,2020-6-07T06:25:00Z
2020-06-07T04:27:19Z,42.805,6.029,13.2974,4.59975,2470.04,2020-6-07T06:28:03Z
2020-06-07T04:30:22Z,42.805,6.029,13.2972,4.59973,2470.087,2020-6-07T06:31:06Z
2020-06-07T04:33:26Z,42.805,6.029,13.2975,4.59976,2470.053,2020-6-07T06:34:09Z
2020-06-07T04:36:29Z,42.805,6.029,13.2974,4.59976,2470.053,2020-6-07T06:37:13Z
2020-06-07T04:39:32Z,42.805,6.029,13.2968,4.59980,2470.1,2020-6-07T06:40:16Z
2020-06-07T04:42:35Z,42.805,6.029,13.2977,4.59978,2470.063,2020-6-07T06:43:19Z
2020-06-07T04:45:38Z,42.805,6.029,13.2971,4.59976,2470.063,2020-6-07T06:46:22Z
2020-06-07T04:48:42Z,42.805,6.029,13.2973,4.59978,2470.077,2020-6-07T06:49:25Z
2020-06-07T04:51:45Z,42.805,6.029,13.2972,4.59978,2470.053,2020-6-07T06:52:29Z
2020-06-07T04:54:48Z,42.805,6.029,13.2974,4.59978,2470.077,2020-6-07T06:55:32Z
2020-06-07T04:57:52Z,42.805,6.029,13.2970,4.59976,2470.063,2020-6-07T06:58:35Z
2020-06-07T05:00:55Z,42.805,6.029,13.2971,4.59974,2470.077,2020-6-07T07:01:39Z
2020-06-07T05:03:58Z,42.805,6.029,13.2971,4.59976,2470.063,2020-6-07T07:04:42Z
2020-06-07T05:07:01Z,42.805,6.029,13.2971,4.59975,2470.11,2020-6-07T07:07:45Z
2020-06-07T05:10:04Z,42.805,6.029,13.2974,4.59978,2470.11,2020-6-07T07:10:48Z
2020-06-07T05:13:08Z,42.805,6.029,13.2974,4.59975,2470.087,2020-6-07T07:13:51Z
2020-06-07T05:16:11Z,42.805,6.029,13.2971,4.59974,2470.11,2020-6-07T07:16:55Z
2020-06-07T05:19:14Z,42.805,6.029,13.2973,4.59978,2470.1,2020-6-07T07:19:58Z
2020-06-07T05:22:17Z,42.805,6.029,13.2973,4.59976,2470.11,2020-6-07T07:23:01Z
2020-06-07T05:25:21Z,42.805,6.029,13.2972,4.59976,2470.11,2020-6-07T07:26:04Z
2020-06-07T05:28:24Z,42.805,6.029,13.2974,4.59976,2470.11,2020-6-07T07:29:08Z
2020-06-07T05:31:27Z,42.805,6.029,13.2976,4.59974,2470.133,2020-6-07T07:32:11Z
2020-06-07T05:34:30Z,42.805,6.029,13.2976,4.59976,2470.087,2020-6-07T07:35:14Z
2020-06-07T05:37:34Z,42.805,6.029,13.2970,4.59976,2470.133,2020-6-07T07:38:17Z
2020-06-07T05:40:37Z,42.805,6.029,13.2974,4.59978,2470.124,2020-6-07T07:41:21Z
2020-06-07T05:43:40Z,42.805,6.029,13.2968,4.59976,2470.133,2020-6-07T07:44:24Z
2020-06-07T05:46:43Z,42.805,6.029,13.2972,4.59976,2470.119,2020-6-07T07:47:27Z
2020-06-07T05:49:47Z,42.805,6.029,13.2971,4.59978,2470.133,2020-6-07T07:50:30Z
2020-06-07T05:52:50Z,42.805,6.029,13.2970,4.59978,2470.1,2020-6-07T07:53:34Z
2020-06-07T05:55:53Z,42.805,6.029,13.2968,4.59975,2470.147,2020-6-07T07:56:37Z
2020-06-07T05:58:56Z,42.805,6.029,13.2972,4.59978,2470.133,2020-6-07T07:59:40Z
2020-06-07T06:02:00Z,42.805,6.029,13.2973,4.59978,2470.147,2020-6-07T08:02:43Z
2020-06-07T06:05:03Z,42.805,6.029,13.2971,4.59976,2470.171,2020-6-07T08:05:47Z
2020-06-07T06:08:06Z,42.805,6.029,13.2970,4.59976,2470.171,2020-6-07T08:08:50Z
2020-06-07T06:11:09Z,42.805,6.029,13.2971,4.59976,2470.147,2020-6-07T08:11:53Z
2020-06-07T06:14:13Z,42.805,6.029,13.2972,4.59976,2470.133,2020-6-07T08:14:56Z
2020-06-07T06:17:16Z,42.805,6.029,13.2974,4.59976,2470.147,2020-6-07T08:17:59Z
2020-06-07T06:20:19Z,42.805,6.029,13.2971,4.59978,2470.156,2020-6-07T08:21:03Z
2020-06-07T06:23:22Z,42.805,6.029,13.2972,4.59978,2470.147,2020-6-07T08:24:06Z
2020-06-07T06:26:26Z,42.805,6.029,13.2974,4.59976,2470.156,2020-6-07T08:27:09Z
2020-06-07T06:29:29Z,42.805,6.029,13.2971,4.59978,2470.156,2020-6-07T08:30:13Z
2020-06-07T06:32:32Z,42.805,6.029,13.2968,4.59976,2470.156,2020-6-07T08:33:16Z
2020-06-07T06:35:35Z,42.805,6.029,13.2968,4.59980,2470.156,2020-6-07T08:36:19Z
2020-06-07T06:38:39Z,42.805,6.029,13.2974,4.59976,2470.156,2020-6-07T08:39:22Z
2020-06-07T06:41:42Z,42.805,6.029,13.2971,4.59980,2470.133,2020-6-07T08:42:26Z
2020-06-07T06:44:45Z,42.805,6.029,13.2975,4.59978,2470.227,2020-6-07T08:45:29Z
2020-06-07T06:47:48Z,42.805,6.029,13.2974,4.59981,2470.203,2020-6-07T08:48:32Z
2020-06-07T06:50:52Z,42.805,6.029,13.2975,4.59977,2470.171,2020-6-07T08:51:35Z
2020-06-07T06:53:55Z,42.805,6.029,13.2976,4.59976,2470.18,2020-6-07T08:54:39Z
2020-06-07T06:56:58Z,42.805,6.029,13.2971,4.59981,2470.18,2020-6-07T08:57:42Z
2020-06-07T07:00:01Z,42.805,6.029,13.2976,4.59978,2470.156,2020-6-07T09:00:45Z
2020-06-07T07:03:05Z,42.805,6.029,13.2970,4.59978,2470.171,2020-6-07T09:03:48Z
2020-06-07T07:06:08Z,42.805,6.029,13.2977,4.59978,2470.147,2020-6-07T09:06:52Z
2020-06-07T07:09:11Z,42.805,6.029,13.2973,4.59984,2470.18,2020-6-07T09:09:55Z
2020-06-07T07:12:14Z,42.805,6.029,13.2974,4.59979,2470.18,2020-6-07T09:12:58Z
2020-06-07T07:15:17Z,42.805,6.029,13.2973,4.59978,2470.194,2020-6-07T09:16:01Z
2020-06-07T07:18:21Z,42.805,6.029,13.2974,4.59980,2470.203,2020-6-07T09:19:04Z
2020-06-07T07:21:24Z,42.805,6.029,13.2976,4.59979,2470.156,2020-6-07T09:22:08Z
2020-06-07T07:24:27Z,42.805,6.029,13.2976,4.59981,2470.18,2020-6-07T09:25:11Z
2020-06-07T07:27:30Z,42.805,6.029,13.2972,4.59976,2470.18,2020-6-07T09:28:14Z
2020-06-07T07:30:34Z,42.805,6.029,13.2976,4.59978,2470.18,2020-6-07T09:31:18Z
2020-06-07T07:33:37Z,42.805,6.029,13.2971,4.59982,2470.203,2020-6-07T09:34:21Z
2020-06-07T07:36:40Z,42.805,6.029,13.2974,4.59981,2470.18,2020-6-07T09:37:24Z
2020-06-07T07:39:43Z,42.805,6.029,13.2976,4.59979,2470.203,2020-6-07T09:40:27Z
2020-06-07T07:42:47Z,42.805,6.029,13.2975,4.59978,2470.156,2020-6-07T09:43:30Z
2020-06-07T07:45:50Z,42.805,6.029,13.2970,4.59980,2470.217,2020-6-07T09:46:34Z
2020-06-07T07:48:53Z,42.805,6.029,13.2970,4.59985,2470.18,2020-6-07T09:49:37Z
2020-06-07T07:51:56Z,42.805,6.029,13.2974,4.59981,2470.203,2020-6-07T09:52:40Z
2020-06-07T07:55:00Z,42.805,6.029,13.2972,4.59978,2470.18,2020-6-07T09:55:43Z
2020-06-07T07:58:03Z,42.805,6.029,13.2970,4.59981,2470.217,2020-6-07T09:58:46Z
2020-06-07T08:01:06Z,42.805,6.029,13.2975,4.59981,2470.18,2020-6-07T10:01:50Z
2020-06-07T08:04:09Z,42.805,6.029,13.2973,4.59982,2470.18,2020-6-07T10:04:53Z
2020-06-07T08:07:13Z,42.805,6.029,13.2975,4.59982,2470.133,2020-6-07T10:07:56Z
2020-06-07T08:10:16Z,42.805,6.029,13.2971,4.59975,2470.156,2020-6-07T10:11:00Z
2020-06-07T08:13:19Z,42.805,6.029,13.2971,4.59976,2470.217,2020-6-07T10:14:03Z
2020-06-07T08:16:22Z,42.805,6.029,13.2976,4.59981,2470.194,2020-6-07T10:17:06Z
2020-06-07T08:19:26Z,42.805,6.029,13.2969,4.59979,2470.194,2020-6-07T10:20:09Z
2020-06-07T08:22:29Z,42.805,6.029,13.2974,4.59981,2470.133,2020-6-07T10:23:13Z
2020-06-07T08:25:32Z,42.805,6.029,13.2972,4.59978,2470.203,2020-6-07T10:26:16Z
2020-06-07T08:28:35Z,42.805,6.029,13.2974,4.59981,2470.156,2020-6-07T10:29:19Z
2020-06-07T08:31:39Z,42.805,6.029,13.2977,4.59979,2470.194,2020-6-07T10:32:22Z
2020-06-07T08:34:42Z,42.805,6.029,13.2974,4.59980,2470.143,2020-6-07T10:35:26Z
2020-06-07T08:37:45Z,42.805,6.029,13.2977,4.59978,2470.217,2020-6-07T10:38:29Z
2020-06-07T08:40:48Z,42.805,6.029,13.2971,4.59983,2470.156,2020-6-07T10:41:32Z
2020-06-07T08:43:52Z,42.805,6.029,13.2974,4.59981,2470.156,2020-6-07T10:44:35Z
2020-06-07T08:46:55Z,42.805,6.029,13.2973,4.59979,2470.156,2020-6-07T10:47:38Z
2020-06-07T08:49:58Z,42.805,6.029,13.2974,4.59981,2470.156,2020-6-07T10:50:42Z
2020-06-07T08:53:01Z,42.805,6.029,13.2974,4.59982,2470.18,2020-6-07T10:53:45Z
2020-06-07T08:56:05Z,42.805,6.029,13.2970,4.59981,2470.156,2020-6-07T10:56:48Z
2020-06-07T08:59:08Z,42.805,6.029,13.2972,4.59976,2470.18,2020-6-07T10:59:52Z
2020-06-07T09:02:11Z,42.805,6.029,13.2972,4.59979,2470.171,2020-6-07T11:02:55Z
2020-06-07T09:05:14Z,42.805,6.029,13.2975,4.59984,2470.194,2020-6-07T11:05:58Z
2020-06-07T09:08:18Z,42.805,6.029,13.2974,4.59981,2470.156,2020-6-07T11:09:01Z
2020-06-07T09:11:21Z,42.805,6.029,13.2976,4.59980,2470.133,2020-6-07T11:12:04Z
2020-06-07T09:14:24Z,42.805,6.029,13.2977,4.59981,2470.156,2020-6-07T11:15:08Z
2020-06-07T09:17:27Z,42.805,6.029,13.2970,4.59977,2470.147,2020-6-07T11:18:11Z
2020-06-07T09:20:30Z,42.805,6.029,13.2974,4.59980,2470.11,2020-6-07T11:21:14Z
2020-06-07T09:23:34Z,42.805,6.029,13.2974,4.59979,2470.18,2020-6-07T11:24:17Z
2020-06-07T09:26:37Z,42.805,6.029,13.2971,4.59981,2470.171,2020-6-07T11:27:21Z
2020-06-07T09:29:40Z,42.805,6.029,13.2975,4.59982,2470.147,2020-6-07T11:30:24Z
2020-06-07T09:32:43Z,42.805,6.029,13.2971,4.59985,2470.11,2020-6-07T11:33:27Z
2020-06-07T09:35:47Z,42.805,6.029,13.2974,4.59986,2470.11,2020-6-07T11:36:30Z
2020-06-07T09:38:50Z,42.805,6.029,13.2974,4.59986,2470.133,2020-6-07T11:39:33Z
2020-06-07T09:41:53Z,42.805,6.029,13.2974,4.59978,2470.133,2020-6-07T11:42:37Z
2020-06-07T09:44:56Z,42.805,6.029,13.2975,4.59979,2470.171,2020-6-07T11:45:40Z
2020-06-07T09:48:00Z,42.805,6.029,13.2969,4.59988,2470.156,2020-6-07T11:48:43Z
2020-06-07T09:51:03Z,42.805,6.029,13.2967,4.59990,2470.156,2020-6-07T11:51:47Z
2020-06-07T09:54:06Z,42.805,6.029,13.2971,4.59986,2470.133,2020-6-07T11:54:50Z
2020-06-07T09:57:09Z,42.805,6.029,13.2976,4.59991,2470.156,2020-6-07T11:57:53Z
2020-06-07T10:00:12Z,42.805,6.029,13.2971,4.59980,2470.171,2020-6-07T12:00:56Z
2020-06-07T10:03:16Z,42.805,6.029,13.2971,4.59983,2470.133,2020-6-07T12:03:59Z
2020-06-07T10:06:19Z,42.805,6.029,13.2972,4.59977,2470.147,2020-6-07T12:07:03Z
2020-06-07T10:09:22Z,42.805,6.029,13.2968,4.59986,2470.11,2020-6-07T12:10:06Z
2020-06-07T10:12:26Z,42.805,6.029,13.2974,4.59981,2470.147,2020-6-07T12:13:09Z
2020-06-07T10:15:29Z,42.805,6.029,13.2976,4.59983,2470.133,2020-6-07T12:16:13Z
2020-06-07T10:18:32Z,42.805,6.029,13.2975,4.59986,2470.156,2020-6-07T12:19:16Z
2020-06-07T10:21:35Z,42.805,6.029,13.2974,4.59983,2470.156,2020-6-07T12:22:19Z
2020-06-07T10:24:38Z,42.805,6.029,13.2976,4.59981,2470.133,2020-6-07T12:25:22Z
2020-06-07T10:27:42Z,42.805,6.029,13.2974,4.59979,2470.133,2020-6-07T12:28:25Z
2020-06-07T10:30:45Z,42.805,6.029,13.2974,4.59981,2470.133,2020-6-07T12:31:29Z
2020-06-07T10:33:48Z,42.805,6.029,13.2971,4.59983,2470.147,2020-6-07T12:34:32Z
2020-06-07T10:36:51Z,42.805,6.029,13.2974,4.59985,2470.147,2020-6-07T12:37:35Z
2020-06-07T10:39:55Z,42.805,6.029,13.2971,4.59978,2470.096,2020-6-07T12:40:38Z
2020-06-07T10:42:58Z,42.805,6.029,13.2973,4.59977,2470.087,2020-6-07T12:43:42Z
2020-06-07T10:46:01Z,42.805,6.029,13.2974,4.59981,2470.1,2020-6-07T12:46:45Z
2020-06-07T10:49:04Z,42.805,6.029,13.2974,4.59977,2470.124,2020-6-07T12:49:48Z
2020-06-07T11:13:08Z,42.805,6.029,13.2976,4.59978,2470.087,2020-6-07T13:13:52Z
2020-06-07T11:16:12Z,42.805,6.029,13.2974,4.59980,2470.124,2020-6-07T13:16:55Z
2020-06-07T11:19:15Z,42.805,6.029,13.2971,4.59984,2470.087,2020-6-07T13:19:59Z
2020-06-07T11:22:18Z,42.805,6.029,13.2975,4.59980,2470.1,2020-6-07T13:23:02Z
2020-06-07T11:25:21Z,42.805,6.029,13.2971,4.59986,2470.11,2020-6-07T13:26:05Z
2020-06-07T11:28:24Z,42.805,6.029,13.2974,4.59979,2470.077,2020-6-07T13:29:08Z
2020-06-07T11:31:28Z,42.805,6.029,13.2972,4.59983,2470.087,2020-6-07T13:32:11Z
2020-06-07T11:34:31Z,42.805,6.029,13.2974,4.59988,2470.063,2020-6-07T13:35:15Z
2020-06-07T11:37:34Z,42.805,6.029,13.2974,4.59983,2470.063,2020-6-07T13:38:18Z
2020-06-07T11:40:37Z,42.805,6.029,13.2972,4.59980,2470.063,2020-6-07T13:41:21Z
2020-06-07T11:43:41Z,42.805,6.029,13.2973,4.59979,2470.063,2020-6-07T13:44:24Z
2020-06-07T11:46:44Z,42.805,6.029,13.2976,4.59978,2470.087,2020-6-07T13:47:28Z
2020-06-07T11:49:47Z,42.805,6.029,13.2971,4.59979,2470.04,2020-6-07T13:50:31Z
2020-06-07T11:52:50Z,42.805,6.029,13.2972,4.59979,2470.087,2020-6-07T13:53:34Z
2020-06-07T11:55:54Z,42.805,6.029,13.2972,4.59976,2470.077,2020-6-07T13:56:37Z
2020-06-07T11:58:57Z,42.805,6.029,13.2974,4.59983,2470.04,2020-6-07T13:59:41Z
2020-06-07T12:02:00Z,42.805,6.029,13.2971,4.59982,2470.04,2020-6-07T14:02:44Z
2020-06-07T12:05:03Z,42.805,6.029,13.2970,4.59980,2470.04,2020-6-07T14:05:47Z
2020-06-07T12:08:06Z,42.805,6.029,13.2973,4.59986,2470.077,2020-6-07T14:08:50Z
2020-06-07T12:11:10Z,42.805,6.029,13.2974,4.59984,2470.063,2020-6-07T14:11:53Z
2020-06-07T12:14:13Z,42.805,6.029,13.2972,4.59986,2470.063,2020-6-07T14:14:57Z
2020-06-07T12:17:16Z,42.805,6.029,13.2975,4.59986,2470.063,2020-6-07T14:18:00Z
2020-06-07T12:20:20Z,42.805,6.029,13.2974,4.59981,2470.063,2020-6-07T14:21:03Z
2020-06-07T12:23:23Z,42.805,6.029,13.2974,4.59990,2470.053,2020-6-07T14:24:07Z
2020-06-07T12:26:26Z,42.805,6.029,13.2973,4.59987,2470.04,2020-6-07T14:27:10Z
2020-06-07T12:29:29Z,42.805,6.029,13.2973,4.59979,2470.053,2020-6-07T14:30:13Z
2020-06-07T12:32:32Z,42.805,6.029,13.2975,4.59979,2470.063,2020-6-07T14:33:16Z
2020-06-07T12:35:36Z,42.805,6.029,13.2974,4.59978,2470.063,2020-6-07T14:36:19Z
2020-06-07T12:38:39Z,42.805,6.029,13.2971,4.59981,2470.017,2020-6-07T14:39:23Z
2020-06-07T12:41:42Z,42.805,6.029,13.2972,4.59979,2470.04,2020-6-07T14:42:26Z
2020-06-07T12:44:45Z,42.805,6.029,13.2971,4.59986,2470.04,2020-6-07T14:45:29Z
2020-06-07T12:47:49Z,42.805,6.029,13.2970,4.59999,2470.03,2020-6-07T14:48:32Z
2020-06-07T12:50:52Z,42.805,6.029,13.2974,4.59992,2470.04,2020-6-07T14:51:36Z
2020-06-07T12:53:55Z,42.805,6.029,13.2973,4.59986,2470.017,2020-6-07T14:54:39Z
2020-06-07T12:56:58Z,42.805,6.029,13.2976,4.59998,2470.017,2020-6-07T14:57:42Z
2020-06-07T13:00:02Z,42.805,6.029,13.2974,4.60001,2470.053,2020-6-07T15:00:45Z
2020-06-07T13:03:05Z,42.805,6.029,13.2974,4.60011,2470.063,2020-6-07T15:03:49Z
2020-06-07T13:06:08Z,42.805,6.029,13.2976,4.60003,2470.063,2020-6-07T15:06:52Z
2020-06-07T13:09:11Z,42.805,6.029,13.2974,4.59997,2470.04,2020-6-07T15:09:55Z
2020-06-07T13:12:15Z,42.805,6.029,13.2973,4.59991,2470.04,2020-6-07T15:12:58Z
2020-06-07T13:15:18Z,42.805,6.029,13.2970,4.60007,2470.017,2020-6-07T15:16:01Z
2020-06-07T13:18:21Z,42.805,6.029,13.2970,4.60003,2470.04,2020-6-07T15:19:05Z
2020-06-07T13:21:24Z,42.805,6.029,13.2974,4.60008,2470.04,2020-6-07T15:22:08Z
2020-06-07T13:24:27Z,42.805,6.029,13.2974,4.59990,2470.017,2020-6-07T15:25:11Z
2020-06-07T13:27:31Z,42.805,6.029,13.2971,4.60006,2470.04,2020-6-07T15:28:14Z
2020-06-07T13:30:34Z,42.805,6.029,13.2969,4.59996,2469.993,2020-6-07T15:31:18Z
2020-06-07T13:33:37Z,42.805,6.029,13.2974,4.60011,2470.017,2020-6-07T15:34:21Z
2020-06-07T13:36:40Z,42.805,6.029,13.2976,4.59992,2470.017,2020-6-07T15:37:24Z
2020-06-07T13:39:44Z,42.805,6.029,13.2974,4.60011,2470.04,2020-6-07T15:40:27Z
2020-06-07T13:42:47Z,42.805,6.029,13.2976,4.60008,2470.017,2020-6-07T15:43:31Z
2020-06-07T13:45:50Z,42.805,6.029,13.2971,4.60009,2469.993,2020-6-07T15:46:34Z
2020-06-07T13:48:53Z,42.805,6.029,13.2972,4.60004,2470.017,2020-6-07T15:49:37Z
2020-06-07T13:51:57Z,42.805,6.029,13.2971,4.60013,2469.97,2020-6-07T15:52:41Z
2020-06-07T13:55:00Z,42.805,6.029,13.2972,4.60003,2470.003,2020-6-07T15:55:44Z
2020-06-07T13:58:03Z,42.805,6.029,13.2974,4.60005,2470.007,2020-6-07T15:58:47Z
2020-06-07T14:01:06Z,42.805,6.029,13.2972,4.60021,2470.007,2020-6-07T16:01:50Z
2020-06-07T14:04:10Z,42.805,6.029,13.2976,4.60019,2469.96,2020-6-07T16:04:53Z
2020-06-07T14:07:13Z,42.805,6.029,13.2975,4.60027,2470.017,2020-6-07T16:07:57Z
2020-06-07T14:10:16Z,42.805,6.029,13.2974,4.60003,2470.007,2020-6-07T16:11:00Z
2020-06-07T14:13:19Z,42.805,6.029,13.2975,4.60001,2470.007,2020-6-07T16:14:03Z
2020-06-07T14:16:23Z,42.805,6.029,13.2974,4.60014,2470.04,2020-6-07T16:17:06Z
2020-06-07T14:19:26Z,42.805,6.029,13.2974,4.60010,2470.03,2020-6-07T16:20:10Z
2020-06-07T14:22:29Z,42.805,6.029,13.2970,4.60014,2469.97,2020-6-07T16:23:13Z
2020-06-07T14:25:32Z,42.805,6.029,13.2973,4.60039,2469.993,2020-6-07T16:26:16Z
2020-06-07T14:28:35Z,42.805,6.029,13.2971,4.60034,2469.97,2020-6-07T16:29:19Z
2020-06-07T14:31:39Z,42.805,6.029,13.2974,4.60046,2469.993,2020-6-07T16:32:22Z
2020-06-07T14:34:42Z,42.805,6.029,13.2971,4.60035,2470.007,2020-6-07T16:35:26Z
2020-06-07T14:37:45Z,42.805,6.029,13.2970,4.60024,2469.993,2020-6-07T16:38:29Z
2020-06-07T14:40:49Z,42.805,6.029,13.2974,4.60010,2469.993,2020-6-07T16:41:32Z
2020-06-07T14:43:52Z,42.805,6.029,13.2978,4.60016,2470.017,2020-6-07T16:44:36Z
2020-06-07T14:46:55Z,42.805,6.029,13.2977,4.60027,2469.993,2020-6-07T16:47:39Z
2020-06-07T14:49:58Z,42.805,6.029,13.2975,4.60016,2469.993,2020-6-07T16:50:42Z
2020-06-07T14:53:02Z,42.805,6.029,13.2969,4.60013,2469.993,2020-6-07T16:53:45Z
2020-06-07T14:56:05Z,42.805,6.029,13.2972,4.60026,2470.007,2020-6-07T16:56:49Z
2020-06-07T14:59:08Z,42.805,6.029,13.2972,4.60011,2469.96,2020-6-07T16:59:52Z
2020-06-07T15:02:12Z,42.805,6.029,13.2974,4.60011,2470.007,2020-6-07T17:02:55Z
2020-06-07T15:05:15Z,42.805,6.029,13.2972,4.60009,2469.993,2020-6-07T17:05:59Z
2020-06-07T15:08:18Z,42.805,6.029,13.2971,4.60011,2470.007,2020-6-07T17:09:02Z
2020-06-07T15:11:21Z,42.805,6.029,13.2973,4.60039,2470.03,2020-6-07T17:12:05Z
2020-06-07T15:14:24Z,42.805,6.029,13.2972,4.60056,2469.97,2020-6-07T17:15:08Z
2020-06-07T15:17:28Z,42.805,6.029,13.2971,4.60057,2470.017,2020-6-07T17:18:11Z
2020-06-07T15:20:31Z,42.805,6.029,13.2975,4.60072,2470.007,2020-6-07T17:21:15Z
2020-06-07T15:23:34Z,42.805,6.029,13.2982,4.60052,2469.979,2020-6-07T17:24:18Z
2020-06-07T15:26:37Z,42.805,6.029,13.2989,4.60055,2470.017,2020-6-07T17:27:21Z
2020-06-07T15:29:41Z,42.805,6.029,13.3004,4.60053,2470.007,2020-6-07T17:30:24Z
2020-06-07T15:32:44Z,42.805,6.029,13.3021,4.60042,2470.03,2020-6-07T17:33:28Z
2020-06-07T15:35:47Z,42.805,6.029,13.3013,4.60035,2469.97,2020-6-07T17:36:31Z